When you browse on this site, cookies collect data to enhance your experience and personalize the content and advertising you see.
Visit our Privacy Policy to learn more. By continuing to use the site, you agree to this use of cookies and data.
  • In Spain
  • List of Countries
  • For 7 days
  • Water Temperature
  • Satellite Maps
  • Weather Map
  • Weather Widgets
  • user-avatar
    Login

    Hourly Weather Neuquén

    Today, 13 December, Thursday

    Time Temperature Precipitation Wind Pressure Humidity
    00:00 +25°C° 0 mm 5 mps 728 mmHg 25%
    01:00 +25°C° 0 mm 5 mps 728 mmHg 28%
    02:00 +23°C° 0.1 mm 5 mps 728 mmHg 30%
    03:00 +22°C° 0.1 mm 4 mps 728 mmHg 33%
    04:00 +22°C° 0.1 mm 4 mps 728 mmHg 36%
    05:00 +23°C° 0 mm 4 mps 728 mmHg 33%
    06:00 +25°C° 0 mm 5 mps 728 mmHg 31%
    07:00 +26°C° 0 mm 5 mps 727 mmHg 28%
    08:00 +27°C° 0 mm 7 mps 728 mmHg 24%
    09:00 +28°C° 0 mm 8 mps 728 mmHg 19%
    10:00 +29°C° 0 mm 9 mps 728 mmHg 15%
    11:00 +31°C° 0 mm 9 mps 727 mmHg 13%
    12:00 +32°C° 0 mm 9 mps 727 mmHg 11%
    13:00 +32°C° 0 mm 9 mps 727 mmHg 9%
    14:00 +32°C° 0 mm 10 mps 727 mmHg 9%
    15:00 +31°C° 0 mm 11 mps 727 mmHg 10%
    16:00 +31°C° 0 mm 12 mps 726 mmHg 10%
    17:00 +28°C° 0 mm 11 mps 727 mmHg 13%
    18:00 +27°C° 0 mm 11 mps 728 mmHg 15%
    19:00 +24°C° 0 mm 10 mps 728 mmHg 18%
    20:00 +23°C° 0 mm 10 mps 729 mmHg 22%
    21:00 +22°C° 0 mm 10 mps 730 mmHg 25%
    22:00 +21°C° 0 mm 9 mps 730 mmHg 29%
    23:00 +19°C° 0 mm 10 mps 730 mmHg 33%

    Tomorrow, 14 December, Friday

    Time Temperature Precipitation Wind Pressure Humidity
    00:00 +18°C° 0 mm 10 mps 730 mmHg 36%
    01:00 +17°C° 0 mm 11 mps 730 mmHg 40%
    02:00 +16°C° 0 mm 11 mps 731 mmHg 39%
    03:00 +16°C° 0 mm 11 mps 731 mmHg 38%
    04:00 +14°C° 0 mm 11 mps 731 mmHg 37%
    05:00 +15°C° 0 mm 12 mps 731 mmHg 36%
    06:00 +15°C° 0 mm 13 mps 732 mmHg 34%
    07:00 +15°C° 0 mm 13 mps 732 mmHg 33%
    08:00 +18°C° 0 mm 12 mps 733 mmHg 30%
    09:00 +19°C° 0 mm 12 mps 733 mmHg 27%
    10:00 +22°C° 0 mm 11 mps 733 mmHg 24%
    11:00 +23°C° 0 mm 10 mps 733 mmHg 22%
    12:00 +24°C° 0 mm 9 mps 733 mmHg 19%
    13:00 +26°C° 0 mm 9 mps 733 mmHg 16%
    14:00 +26°C° 0 mm 9 mps 733 mmHg 14%
    15:00 +27°C° 0 mm 9 mps 733 mmHg 13%
    16:00 +27°C° 0 mm 9 mps 732 mmHg 11%
    17:00 +26°C° 0 mm 8 mps 733 mmHg 12%
    18:00 +26°C° 0 mm 8 mps 733 mmHg 14%
    19:00 +24°C° 0 mm 7 mps 733 mmHg 15%
    20:00 +23°C° 0 mm 7 mps 733 mmHg 18%
    21:00 +22°C° 0 mm 8 mps 734 mmHg 21%
    22:00 +22°C° 0 mm 8 mps 734 mmHg 24%
    23:00 +21°C° 0 mm 7 mps 734 mmHg 26%

    Day after tomorrow, 15 December, Saturday

    Time Temperature Precipitation Wind Pressure Humidity
    00:00 +20°C° 0 mm 6 mps 734 mmHg 29%
    01:00 +19°C° 0 mm 6 mps 734 mmHg 32%
    02:00 +19°C° 0 mm 5 mps 734 mmHg 33%
    03:00 +18°C° 0 mm 4 mps 734 mmHg 35%
    04:00 +17°C° 0 mm 4 mps 734 mmHg 37%
    05:00 +19°C° 0 mm 4 mps 734 mmHg 33%
    06:00 +20°C° 0 mm 4 mps 734 mmHg 29%
    07:00 +22°C° 0 mm 3 mps 734 mmHg 25%
    08:00 +23°C° 0 mm 4 mps 734 mmHg 22%
    09:00 +26°C° 0 mm 4 mps 734 mmHg 19%
    10:00 +28°C° 0 mm 4 mps 734 mmHg 16%
    11:00 +29°C° 0 mm 4 mps 733 mmHg 14%
    12:00 +30°C° 0 mm 5 mps 732 mmHg 12%
    13:00 +32°C° 0 mm 5 mps 731 mmHg 11%
    14:00 +33°C° 0 mm 5 mps 731 mmHg 10%
    15:00 +34°C° 0 mm 5 mps 730 mmHg 9%
    16:00 +34°C° 0 mm 4 mps 729 mmHg 8%
    17:00 +34°C° 0 mm 4 mps 729 mmHg 9%
    18:00 +33°C° 0 mm 3 mps 729 mmHg 10%
    19:00 +31°C° 0 mm 3 mps 729 mmHg 11%
    20:00 +30°C° 0 mm 5 mps 729 mmHg 15%
    21:00 +29°C° 0 mm 7 mps 729 mmHg 20%
    22:00 +27°C° 0 mm 9 mps 730 mmHg 24%
    23:00 +26°C° 0 mm 9 mps 730 mmHg 27%

    16 December, Sunday

    Time Temperature Precipitation Wind Pressure Humidity
    00:00 +24°C° 0 mm 9 mps 729 mmHg 30%
    01:00 +23°C° 0 mm 9 mps 729 mmHg 33%
    02:00 +22°C° 0 mm 9 mps 729 mmHg 35%
    03:00 +22°C° 0 mm 9 mps 729 mmHg 37%
    04:00 +21°C° 0 mm 9 mps 729 mmHg 40%
    05:00 +22°C° 0 mm 9 mps 730 mmHg 37%
    06:00 +23°C° 0 mm 9 mps 730 mmHg 35%
    07:00 +26°C° 0 mm 9 mps 731 mmHg 32%
    08:00 +27°C° 0 mm 9 mps 731 mmHg 30%
    09:00 +28°C° 0 mm 9 mps 730 mmHg 28%
    10:00 +31°C° 0 mm 9 mps 730 mmHg 26%
    11:00 +31°C° 0 mm 9 mps 730 mmHg 25%
    12:00 +32°C° 0 mm 9 mps 730 mmHg 24%
    13:00 +32°C° 0 mm 9 mps 729 mmHg 23%
    14:00 +31°C° 0.1 mm 11 mps 729 mmHg 26%
    15:00 +29°C° 0.1 mm 12 mps 729 mmHg 28%
    16:00 +28°C° 0.1 mm 13 mps 730 mmHg 30%
    17:00 +26°C° 0.4 mm 12 mps 730 mmHg 32%
    18:00 +24°C° 0.4 mm 12 mps 731 mmHg 35%
    19:00 +22°C° 0.4 mm 11 mps 732 mmHg 37%
    20:00 +22°C° 0.3 mm 10 mps 732 mmHg 36%
    21:00 +22°C° 0.3 mm 9 mps 733 mmHg 35%
    22:00 +21°C° 0.3 mm 8 mps 733 mmHg 34%
    23:00 +21°C° 0 mm 8 mps 733 mmHg 35%

    17 December, Monday

    Time Temperature Precipitation Wind Pressure Humidity
    00:00 +20°C° 0 mm 7 mps 733 mmHg 37%
    01:00 +18°C° 0 mm 7 mps 733 mmHg 39%
    02:00 +19°C° 0 mm 6 mps 734 mmHg 44%
    03:00 +17°C° 0 mm 6 mps 734 mmHg 50%
    04:00 +17°C° 0 mm 5 mps 734 mmHg 55%
    05:00 +19°C° 0 mm 6 mps 735 mmHg 56%
    06:00 +20°C° 0 mm 6 mps 736 mmHg 57%
    07:00 +21°C° 0 mm 6 mps 737 mmHg 58%
    08:00 +22°C° 0 mm 6 mps 737 mmHg 51%
    09:00 +24°C° 0 mm 6 mps 737 mmHg 44%
    10:00 +26°C° 0 mm 5 mps 737 mmHg 37%
    11:00 +27°C° 0 mm 5 mps 737 mmHg 34%
    12:00 +28°C° 0 mm 5 mps 736 mmHg 31%
    13:00 +29°C° 0 mm 5 mps 736 mmHg 27%
    14:00 +29°C° 0 mm 5 mps 736 mmHg 25%
    15:00 +30°C° 0 mm 5 mps 735 mmHg 23%
    16:00 +30°C° 0 mm 5 mps 735 mmHg 21%
    17:00 +30°C° 0 mm 5 mps 735 mmHg 20%
    18:00 +29°C° 0 mm 5 mps 735 mmHg 20%
    19:00 +29°C° 0 mm 5 mps 735 mmHg 20%
    20:00 +28°C° 0 mm 5 mps 735 mmHg 20%
    21:00 +27°C° 0 mm 6 mps 736 mmHg 20%
    22:00 +26°C° 0 mm 6 mps 736 mmHg 19%
    23:00 +24°C° 0 mm 6 mps 736 mmHg 22%

    18 December, Tuesday

    Time Temperature Precipitation Wind Pressure Humidity
    00:00 +24°C° 0 mm 7 mps 735 mmHg 24%
    01:00 +23°C° 0 mm 7 mps 735 mmHg 26%
    02:00 +23°C° 0 mm 8 mps 735 mmHg 28%
    03:00 +22°C° 0 mm 8 mps 735 mmHg 31%
    04:00 +21°C° 0 mm 8 mps 735 mmHg 33%
    05:00 +22°C° 0 mm 9 mps 735 mmHg 35%
    06:00 +23°C° 0 mm 9 mps 735 mmHg 36%
    07:00 +24°C° 0 mm 9 mps 735 mmHg 37%
    08:00 +27°C° 0 mm 9 mps 735 mmHg 35%
    09:00 +29°C° 0 mm 9 mps 734 mmHg 32%
    10:00 +32°C° 0 mm 9 mps 734 mmHg 30%
    11:00 +33°C° 0 mm 9 mps 733 mmHg 28%
    12:00 +34°C° 0 mm 8 mps 732 mmHg 26%
    13:00 +35°C° 0 mm 8 mps 732 mmHg 23%
    14:00 +35°C° 0 mm 8 mps 731 mmHg 23%
    15:00 +35°C° 0 mm 8 mps 730 mmHg 23%
    16:00 +35°C° 0 mm 7 mps 729 mmHg 22%
    17:00 +34°C° 0 mm 7 mps 729 mmHg 22%
    18:00 +34°C° 0 mm 7 mps 729 mmHg 23%
    19:00 +33°C° 0 mm 7 mps 729 mmHg 23%
    20:00 +32°C° 0 mm 7 mps 729 mmHg 22%
    21:00 +32°C° 0 mm 7 mps 729 mmHg 21%
    22:00 +30°C° 0 mm 7 mps 729 mmHg 20%
    23:00 +29°C° 0 mm 7 mps 729 mmHg 21%
    Show more